Simultaneous Nadir Overpasses (SNOs) Predictions

Prediction of SNOs between AQUA and NOAA-19 Satellite Orbit:

Table of predicted SNOs for the next 14.0 days since TLE Epoch: 6/14/2024
Index Date (AQUA) Time (AQUA) Lat,Lon (AQUA) SZA (AQUA ) Date (NOAA-19) Time (NOAA-19) Lat,Lon (NOAA-19) SZA (NOAA-19 ) Distance(km) Time Diff (sec)
1 06/16/2024 21:31:20 75.72,-145.12 52.27 06/16/2024 21:30:25 75.69,-145.15 52.25 3.32 55
2 06/16/2024 22:20:42 -75.77, 22.39 127.68 06/16/2024 22:21:24 -75.78, 22.40 127.67 1.06 42
3 06/19/2024 01:21:18 -75.70, -22.50 127.80 06/19/2024 01:20:23 -75.70, -22.57 127.79 1.81 55
4 06/19/2024 02:10:42 75.76, 144.97 52.27 06/19/2024 02:11:19 75.77, 144.93 52.28 1.62 37
5 06/21/2024 05:11:18 75.73, 99.95 52.23 06/21/2024 05:10:18 75.71, 100.02 52.21 3.09 60
6 06/21/2024 06:00:40 -75.77, -92.51 127.73 06/21/2024 06:01:17 -75.75, -92.59 127.76 3.20 37
7 06/23/2024 09:01:15 -75.72,-137.48 127.76 06/23/2024 09:00:15 -75.70,-137.45 127.78 3.14 60
8 06/23/2024 09:50:38 75.75, 30.10 52.27 06/23/2024 09:51:12 75.77, 30.06 52.29 2.71 34
9 06/25/2024 12:51:12 75.69, -14.85 52.27 06/25/2024 12:50:11 75.69, -14.91 52.27 1.71 61
10 06/25/2024 13:40:35 -75.78, 152.56 127.65 06/25/2024 13:41:08 -75.77, 152.63 127.66 2.02 33
11 06/27/2024 16:41:08 -75.71, 107.66 127.63 06/27/2024 16:40:06 -75.70, 107.72 127.63 1.87 62



Historial Predications of SNOs between AQUA and NOAA-19
